Regional Weather Roundup
Issued by NWS Jackson, KY

Home | Current Version | Previous Version | Text Only | Print | Product List | Glossary Off
Versions: 1 2 3 4 5 6 7 8 9 10 11 12 13 14 15 16 17 18 19 20 21 22 23 24 25 26 27

000
ASUS43 KJKL 210410
RWRJKL

EAST KENTUCKY HOURLY WEATHER ROUNDUP
NATIONAL WEATHER SERVICE JACKSON KY
1200 AM EDT THU SEP 21 2017

NOTE: "FAIR" INDICATES FEW OR NO CLOUDS BELOW 12,000 FEET WITH
NO SIGNIFICANT WEATHER AND/OR OBSTRUCTIONS TO VISIBILITY.

* THESE REPORTS ARE NOT UNDER NWS QUALITY CONTROL AND MAY NOT
  REPORT WEATHER SUCH AS PRECIPITATION AND FOG.

KYZ079-080-083-085-087-088-110-112-115-119-120-210500
...EASTERN KENTUCKY...

CITY           SKY/WX    TMP DP  RH WIND       PRES   REMARKS
JACKSON        CLEAR     71  66  84 SE3       30.08S
LONDON         CLEAR     69  67  93 CALM      30.08R
SOMERSET*      CLEAR     68  68 100 CALM      30.08S FOG
MONTICELLO*    CLOUDY    64  63  96 W9        30.08F FOG
WILLIAMSBURG*  CLEAR     68  68 100 CALM      30.08S
MIDDLESBORO*   CLEAR     65  65 100 CALM      30.10S
HARLAN APT*    PTCLDY    64  63  94 CALM      30.11S
PIKE CO APT*     N/A     68  68 100 CALM      30.09S
BIG SANDY APT* CLEAR     68  67  99 CALM      30.07F
MOREHEAD APT*  CLEAR     68  66  94 CALM      30.07S FOG
$$

KYZ035-036-041-042-044-050-067-078-099-210500
...CENTRAL KENTUCKY...

CITY           SKY/WX    TMP DP  RH WIND       PRES   REMARKS
MT STERLING*   CLEAR     66  66 100 CALM      30.07S
FLEMING/MASON* CLEAR     68  67  94 CALM      30.06S
DANVILLE*      CLEAR     68  66  94 CALM      30.07S
LEXINGTON      CLEAR     71  67  87 SE5       30.05S
FRANKFORT      CLEAR     69  66  90 CALM      30.03S
LOUISVILLE     CLEAR     77  70  79 SE7       30.00F
LEBANON*         N/A     73  68  83 CALM      30.05S
GLASGOW*       CLEAR     67  67 100 CALM      30.04S
BOWLING GREEN  CLEAR     73  71  93 E3        30.02S
$$

KYZ091>093-OHZ055-061-077-WVZ005-015-034-035-042-210500
...SOUTHERN OHIO/WEST VIRGINIA...

CITY           SKY/WX    TMP DP  RH WIND       PRES   REMARKS
COVINGTON      CLEAR     72  69  90 S5        30.03S
COLUMBUS       PTCLDY    70  68  93 SE5       30.03S
DAYTON         CLEAR     71  66  84 S6        30.03F
WILMINGTON     CLEAR     66  66 100 CALM      30.04S
HUNTINGTON     CLEAR     68  66  93 CALM      30.04F
CHARLESTON     CLEAR     67  64  90 CALM      30.06S
PINEVILLE*     CLEAR     63  62  95 MISG      30.16S
BECKLEY        CLEAR     61  60  97 S3        30.14S FOG
BLUEFIELD      MOCLDY    66  60  81 CALM      30.17R
LOGAN CO APT*    N/A     68  64  88 CALM      30.09F
$$

VAZ002-007-008-TNZ017-027-036-066-071-210500
...SOUTHWEST VIRGINIA/EAST TENNESSEE...

CITY           SKY/WX    TMP DP  RH WIND       PRES   REMARKS
WISE*          CLEAR     64  64 100 CALM      30.17S
JONESVILLE*      N/A     63  63 100 CALM      30.12S
ABINGDON*      CLEAR     66  63  89 CALM      30.12F
BRISTOL        CLEAR     66  63  90 CALM      30.10S
MORRISTOWN*    CLEAR     68  64  88 CALM      30.07F
SEVIERVILLE*   CLEAR     66  63  88 CALM      30.07S
KNOXVILLE      CLEAR     73  66  78 CALM      30.06S
LAFOLLETTE*    CLEAR     66  66 100 CALM      30.11S FOG
OAK RIDGE      CLEAR     69  66  90 CALM      30.08S
CROSSVILLE     CLEAR     65  64  97 CALM      30.12S
NASHVILLE      CLEAR     75  69  81 SE5       30.04R
$$

...KEY TO REMARKS...
VSB - VISIBILITY IN MILES
WCI - WIND CHILL INDEX
HX  - HEAT INDEX

$$




USA.gov is the U.S. government's official web portal to all federal, state and local government web resources and services.